User: anonymous   Login
Location: Feydey
(46.3431°N, 7.0106°E)
Time: 02:43:41
(UTC+00:00)
Language:

Cosmos 990 Rocket - Orbit

View from above orbital plane
View from above orbital plane
View from above satellite
View from above satellite

Ground track
Ground track

The orbit data is extracted from the following two-line orbital elements,

1 10677U 78019B   21264.27778660  .00000001  00000-0  86006-5 0  9990
2 10677  74.0375 304.2139 0015562 350.5441   9.5419 14.40199191286331
Epoch (UTC): 21 September 2021 06:40:00
Eccentricity: 0.0015562
inclination: 74.0375°
perigee height: 747 km
apogee height: 769 km
right ascension of ascending node: 304.2139°
argument of perigee: 350.5441°
revolutions per day: 14.40199191
mean anomaly at epoch: 9.5419°
orbit number at epoch: 28633

The dashed part of the orbit path shows where the satellite is in the earth's shadow,  

DLR